Miscellaneous Local Product
Issued by NWS Hastings, NE

Home | Current Version | Previous Version | Graphics & Text | Print | Product List | Glossary On
Versions: 1 2 3 4 5 6 7 8 9 10 11 12 13 14 15 16 17 18 19 20 21 22 23 24 25 26 27 28 29 30 31 32 33 34 35 36 37 38 39 40 41 42 43 44 45 46 47 48 49 50
000
AXUS43 KGID 281402
MISGRI

GID CWA HOURLY WEATHER ROUNDUP
NATIONAL WEATHER SERVICE HASTINGS NE
800 AM CST WED JAN 28 2015

NOTE: "FAIR" INDICATES FEW OR NO CLOUDS BELOW 12,000 FEET WITH NO
SIGNIFICANT WEATHER AND/OR OBSTRUCTIONS TO VISIBILITY.

...SOUTH CENTRAL NEBRASKA...

CITY           SKY/WX    TMP DP  RH WIND       PRES   REMARKS
GRAND ISLAND   PTCLDY    26  24  92 SE5       29.80S WCI  20
HASTINGS       PTCLDY    25  22  88 CALM      29.79S
KEARNEY        PTCLDY    30  27  86 NW5       29.79F WCI  25
ORD            MOCLDY    26  23  88 S5        29.79S WCI  20
YORK           CLEAR     32  28  86 SE7       29.79F WCI  26
AURORA         PTCLDY    27  25  94 NW3       29.82R
LEXINGTON      PTCLDY    38  32  77 W15       29.83R WCI  30
HOLDREGE       CLEAR     36  28  72 NW9       29.80S WCI  29
HEBRON         FAIR      32  28  87 CALM      29.81F

...NEBRASKA PANHANDLE...

CITY           SKY/WX    TMP DP  RH WIND       PRES   REMARKS
CHADRON        MOCLDY    36  29  75 SW9       29.89R WCI  29
ALLIANCE       MOCLDY    43  33  68 W21       29.90R
SCOTTSBLUFF      N/A    N/A N/A N/A MISG      29.96R
SIDNEY         MOCLDY    46  32  58 NW22      29.95S

...WESTERN AND NORTH CENTRAL NEBRASKA...

CITY           SKY/WX    TMP DP  RH WIND       PRES   REMARKS
VALENTINE      MOCLDY    45  31  58 W13       29.77F
AINSWORTH      MOCLDY    45  32  59 W10       29.76F
ONEILL         MOCLDY    34  32  92 S7        29.75F WCI  28
BROKEN BOW     MOCLDY    52  33  48 NW17      29.79F
IMPERIAL       MOCLDY    38  28  67 W8        29.91R WCI  32
NORTH PLATTE   MOCLDY    30  26  85 NW7       29.86R WCI  23
MCCOOK         CLEAR     33  28  81 W8        29.86S WCI  26

...EASTERN NEBRASKA...

CITY           SKY/WX    TMP DP  RH WIND       PRES   REMARKS
NORFOLK        PTCLDY    29  26  89 SE3       29.80F
SO SIOUX CITY  PTCLDY    32  29  88 SE14      29.85F WCI  22
TEKAMAH        PTCLDY    32  29  88 SE13      29.86F WCI  22
COLUMBUS       CLEAR     28  21  74 SE3       29.83F
ALBION         PTCLDY    27  24  89 CALM      29.81R
OMAHA EPPLEY   MOCLDY    34  29  82 SE12      29.88F WCI  25
OFFUTT AFB     CLEAR     32  29  86 E13       29.87F WCI  23
MILLARD        PTCLDY    34  30  85 SE8       29.87F WCI  27
LINCOLN        CLEAR     31  27  85 SE7       29.85F WCI  24
NEBRASKA CITY  PTCLDY    34  28  79 SE7       29.87S WCI  28
BEATRICE       FAIR      30  27  90 E3        29.83S
FALLS CITY     CLEAR     34  28  79 SE7       29.88F WCI  28

...NORTHERN KANSAS...

CITY           SKY/WX    TMP DP  RH WIND       PRES   REMARKS
GOODLAND       CLOUDY    38  29  70 NW10      29.95R WCI  31
HILL CITY      FAIR      35  28  75 W9        29.86R WCI  28
NORTON         SUNNY     36  27  69 SW10      29.84R WCI  28
PHILLIPSBURG   CLEAR     30  27  86 W6        29.83S WCI  24
SMITH CENTER   CLEAR     25  25 100 N6        29.82S WCI  18
BELOIT         CLEAR     32  28  86 CALM      29.82R
HAYS           PTCLDY    37  27  65 W10       29.84S WCI  30
RUSSELL        PTCLDY    38  32  79 SW9       29.82R WCI  31
CONCORDIA      CLEAR     40  32  73 CALM      29.81S
SALINA         CLEAR     40  32  73 S6        29.85S
TOPEKA         CLEAR     33  29  85 E3        29.90F



USA.gov is the U.S. government's official web portal to all federal, state and local government web resources and services.